Location: Unspecified
(41.1637°N, 24.2901°E)
Time: 04:18:01
(UTC+02:00)

ISS - Pass Details

Date: 23 March 2023
Orbit: 413 x 423 km, 51.6° (Epoch: 01 April)

Event Time Altitude Azimuth Distance (km) Brightness Sun altitude
Rises 19:27:03 0° 301° (WNW) 2,354 1.5 -20.9°
Reaches altitude 10° 19:29:59 10° 329° (NNW) 1,490 -0.3 -21.4°
Maximum altitude 19:31:46 14° 1° (N) 1,288 -1.1 -21.7°
Enters shadow 19:32:24 13° 14° (NNE) 1,315 -1.2 -21.8°
